Regional Weather Roundup
Issued by NWS State College, PA

Home | Current Version | Previous Version | Graphics & Text | Print | Product List | Glossary On
Versions: 1 2 3 4 5 6 7 8 9 10 11 12 13 14 15 16 17 18 19 20 21 22 23 24 25 26 27 28 29 30 31 32 33 34 35 36 37 38 39 40 41 42 43 44 45 46 47 48 49 50
000
ASUS41 KCTP 161710
RWRCTP

REGIONAL WEATHER ROUNDUP
NATIONAL WEATHER SERVICE STATE COLLEGE PA
100 PM EDT MON OCT 16 2017

Note: "fair" indicates few or no clouds below 12,000 feet with no
significant weather and/or obstructions to visibility.

* = STATION THAT DOES NOT REPORT PRECIPITATION /E.G. RAIN...SNOW...ETC/
    THUNDER OR FOG.

PAZ002>004-007>009-013>016-020>023-029>032-161800-
WESTERN PENNSYLVANIA

CITY           SKY/WX    TMP DP  RH WIND       PRES   REMARKS
ERIE           MOSUNNY   51  37  58 N10       30.26R
MEADVILLE      LGT RAIN  43  42  97 W7        30.25R
FRANKLIN*      PTSUNNY   51  40  65 NW10      30.22S
NEW CASTLE     PTSUNNY   54  34  46 NW10G18   30.24F
BEAVER COUNTY  CLOUDY    52  41  66 W12G18    30.25R
BUTLER*        MOSUNNY   55  37  50 N9        30.22F
PITTSBURGH INT PTSUNNY   56  37  49 NW14G23   30.23R
PITTSBURGH     CLOUDY    54  36  50 NW14G22   30.21S
INDIANA*       PTSUNNY   52  36  54 N10G21    30.23S
LATROBE        PTSUNNY   54  37  54 N17       30.23R
WASHINGTON CO* LGT RAIN  49  43  80 N8G23     30.27R
$$

PAZ004>006-010>012-017>019-024>028-033>037-041-042-045-046-049>053-161800-
CENTRAL PENNSYLVANIA

CITY           SKY/WX    TMP DP  RH WIND       PRES   REMARKS
BRADFORD       MOSUNNY   49  32  52 NW10G22   30.16F
DUBOIS         MOSUNNY   51  34  52 NW14G23   30.18S
CLEARFIELD     MOSUNNY   54  35  48 N10       30.17S
JOHNSTOWN      PTSUNNY   52  33  48 NW22G29   30.17S
ALTOONA        SUNNY     56  36  47 NW16G26   30.16S
STATE COLLEGE  MOSUNNY   55  34  44 NW14      30.14S
WILLIAMSPORT   CLOUDY    57  35  43 NW12G20   30.12F
SELINSGROVE    PTSUNNY   56  41  57 N9G18     30.13F
FT INDIANTOWN  PTSUNNY   55  38  52 NW12G22   30.11S
CAPITAL CITY   MOSUNNY   58  37  45 NW10G18   30.11R
HARRISBURG     CLOUDY    58  39  49 N20       30.10R
YORK           CLOUDY    58  43  57 NW17G24   30.10S
$$

PAZ038>040-043-044-047-048-054-055-060>062-067>071-161800-
EASTERN PENNSYLVANIA

CITY           SKY/WX    TMP DP  RH WIND       PRES   REMARKS
SCRANTON       CLOUDY    50  38  63 N18G26    30.10F
MOUNT POCONO   CLOUDY    46  38  73 NW13G32   30.04F
ALLENTOWN      CLOUDY    54  39  57 NW14      30.08R
QUAKERTOWN*    CLOUDY    54  39  58 NW9       30.08S
READING        CLOUDY    55  43  63 NW10      30.08S
LANCASTER      CLOUDY    55  43  63 N12G21    30.10R
COATESVILLE    CLOUDY    54  43  66 N12G18    30.09F
POTTSTOWN      CLOUDY    54  42  64 N10G18    30.08
BLUE BELL      CLOUDY    54  41  62 NW6       30.08S
DOYLESTOWN     CLOUDY    54  40  59 NW10G20   30.05R
WILLOW GROVE   NOT AVBL
NORTH PHILA    CLOUDY    58  41  53 NW16      30.07R
PHILADELPHIA   CLOUDY    57  41  55 NW15      30.06S
$$




USA.gov is the U.S. government's official web portal to all federal, state and local government web resources and services.